Location: Newark
(42.2947°N, 5.1925°W)
Time: 18:26:36
(UTC+00:00)

STARLINK 1056 - Pass Details

Date: 15 December 2019
Orbit: 548 x 551 km, 53.0° (Epoch: 17 January)

Event Time Altitude Azimuth Distance (km) Brightness Sun altitude
Exits shadow 05:16:48 20° 181° (S) 1,408 5.7 -26.0°
Drops below altitude 10° 05:18:30 10° 166° (SSE) 1,944 6.7 -25.7°
Sets 05:20:58 0° 156° (SSE) 2,849 7.7 -25.2°
